Terminal Aerodrome Forecast
Issued by NWS Binghamton, NY

Home | Current Version | Previous Version | Text Only | Print | Product List | Glossary On
Versions: 1 2 3 4 5 6 7 8 9 10 11 12 13 14 15 16 17
000
FTUS41 KBGM 301100 RRA
TAFBGM
TAF
KBGM 301141Z 3012/3112 30010G20KT 4SM -SHSN SCT008 OVC015
      TEMPO 3012/3015 2SM -SHSN OVC008
     FM301500 32015G28KT 5SM -SHSN OVC015
     FM310000 32012G22KT P6SM -SHSN BKN025=

USA.gov is the U.S. government's official web portal to all federal, state and local government web resources and services.